Thedford, NE

7:53 PM CDT on July 25, 2017 (GMT -0500)
Thedford

Weather History for KTIF - October, 2013

Change the Weather History Date:

Tuesday, October 8, 2013

  Actual Average (KANW) Record (KANW)
Temperature  
Mean Temperature 62 °F -  
Max Temperature 77 °F 64 °F 89 °F (2010)
Min Temperature 48 °F 39 °F 17 °F (2000)
Degree Days  
Heating Degree Days 2    
Growing Degree Days 12 (Base 50)    
Moisture  
Dew Point 39 °F    
Average Humidity 44    
Maximum Humidity 70    
Minimum Humidity 21    
Precipitation  
Precipitation 0.00 in - - ()
Sea Level Pressure  
Sea Level Pressure 29.80 in    
Wind  
Wind Speed 9 mph (South)    
Max Wind Speed 15 mph    
Max Gust Speed 21 mph    
Visibility 10 miles    
Events      
Averages and records for this station are not official NWS values.
T = Trace of Precipitation, MM = Missing Value Source: NWS Daily Summary

Daily Weather History Graph

Daily Weather History Graph

Search for Another Location

Airport or City:

Trip Planner

Search our weather history database for the weather conditions in past years. The results will help you decide how hot, cold, wet, or windy it might be!

Date:

Astronomy

Oct. 08, 2013 Rise Set
Actual Time 7:47 AM CDT 7:11 PM CDT
Civil Twilight 7:19 AM CDT 7:39 PM CDT
Nautical Twilight 6:46 AM CDT 8:11 PM CDT
Astronomical Twilight 6:14 AM CDT 8:44 PM CDT
Moon 11:46 AM CDT (10/8) 9:46 PM CDT (10/8)
Length of Visible Light 12h 20m
Length of Day
11h 24m
Waxing Crescent, 16% of the Moon is Illuminated
Oct 8
Waxing Crescent
Oct 11
First Quarter
Oct 18
Full
Oct 26
Last Quarter
Nov 3
New

Hourly Weather History & Observations

Time (CDT) Temp. Dew Point Humidity Pressure Visibility Wind Dir Wind Speed Gust Speed Precip Events Conditions
12:15 AM 59.0 °F 37.8 °F 45% 29.89 in 10.0 mi South 9.2 mph - N/A   Clear
12:35 AM 59.4 °F 37.6 °F 44% 29.87 in 10.0 mi South 11.5 mph - N/A   Clear
12:55 AM 59.7 °F 37.4 °F 43% 29.87 in 10.0 mi South 12.7 mph - N/A   Clear
1:15 AM 60.3 °F 37.0 °F 42% 29.87 in 10.0 mi South 11.5 mph - N/A   Clear
1:35 AM 61.2 °F 36.5 °F 40% 29.86 in 10.0 mi South 15.0 mph 20.7 mph N/A   Clear
1:55 AM 60.8 °F 36.7 °F 41% 29.86 in 10.0 mi South 12.7 mph - N/A   Clear
2:15 AM 59.9 °F 36.7 °F 42% 29.86 in 10.0 mi South 11.5 mph - N/A   Clear
2:35 AM 58.6 °F 37.0 °F 45% 29.85 in 10.0 mi South 9.2 mph - N/A   Clear
2:55 AM 57.2 °F 37.4 °F 48% 29.85 in 10.0 mi South 10.4 mph - N/A   Clear
3:15 AM 56.3 °F 37.6 °F 50% 29.84 in 10.0 mi South 9.2 mph - N/A   Clear
3:35 AM 55.4 °F 37.8 °F 52% 29.84 in 10.0 mi South 10.4 mph - N/A   Clear
3:55 AM 54.7 °F 37.9 °F 53% 29.83 in 10.0 mi South 10.4 mph - N/A   Clear
4:15 AM 54.5 °F 38.1 °F 54% 29.83 in 10.0 mi South 8.1 mph - N/A   Clear
4:35 AM 54.7 °F 38.3 °F 54% 29.82 in 10.0 mi South 10.4 mph - N/A   Clear
4:55 AM 54.5 °F 38.3 °F 54% 29.83 in 10.0 mi South 5.8 mph - N/A   Clear
5:15 AM 54.0 °F 38.3 °F 55% 29.82 in 10.0 mi South 9.2 mph - N/A   Clear
5:35 AM 52.5 °F 38.7 °F 59% 29.82 in 10.0 mi South 8.1 mph - N/A   Clear
5:55 AM 52.0 °F 39.2 °F 62% 29.82 in 10.0 mi South 5.8 mph - N/A   Clear
6:15 AM 51.4 °F 39.2 °F 63% 29.81 in 10.0 mi South 6.9 mph - N/A   Clear
6:35 AM 50.7 °F 39.2 °F 65% 29.81 in 10.0 mi Calm Calm - N/A   Clear
6:55 AM 49.5 °F 39.4 °F 68% 29.81 in 10.0 mi South 3.5 mph - N/A   Clear
7:15 AM 50.0 °F 39.2 °F 66% 29.81 in 10.0 mi Calm Calm - N/A   Clear
7:35 AM 50.2 °F 39.4 °F 66% 29.82 in 10.0 mi SSW 6.9 mph - N/A   Clear
7:55 AM 50.0 °F 39.2 °F 66% 29.82 in 10.0 mi SW 3.5 mph - N/A   Clear
8:15 AM 48.6 °F 39.2 °F 70% 29.83 in 10.0 mi Calm Calm - N/A   Clear
8:35 AM 50.2 °F 40.1 °F 68% 29.83 in 10.0 mi South 8.1 mph - N/A   Clear
8:55 AM 52.5 °F 40.3 °F 63% 29.82 in 10.0 mi South 11.5 mph 16.1 mph N/A   Clear
9:15 AM 53.6 °F 39.9 °F 60% 29.81 in 10.0 mi SSW 13.8 mph - N/A   Clear
9:35 AM 54.5 °F 40.1 °F 58% 29.81 in 10.0 mi South 6.9 mph - N/A   Clear
9:55 AM 56.5 °F 40.1 °F 54% 29.81 in 10.0 mi South 13.8 mph - N/A   Clear
10:15 AM 56.8 °F 40.5 °F 54% 29.81 in 10.0 mi SSW 6.9 mph - N/A   Clear
10:35 AM 57.4 °F 40.1 °F 53% 29.81 in 10.0 mi SSW 10.4 mph - N/A   Clear
10:55 AM 59.4 °F 40.3 °F 49% 29.80 in 10.0 mi South 12.7 mph - N/A   Clear
11:15 AM 60.8 °F 40.1 °F 46% 29.80 in 10.0 mi SSW 9.2 mph - N/A   Clear
11:35 AM 62.4 °F 40.1 °F 44% 29.80 in 10.0 mi South 10.4 mph - N/A   Clear
11:55 AM 65.3 °F 40.1 °F 40% 29.80 in 10.0 mi South 10.4 mph - N/A   Clear
12:15 PM 67.1 °F 39.6 °F 36% 29.80 in 10.0 mi South 10.4 mph - N/A   Clear
12:35 PM 69.3 °F 39.4 °F 34% 29.80 in 10.0 mi SSW 8.1 mph - N/A   Clear
12:55 PM 71.4 °F 39.6 °F 31% 29.79 in 10.0 mi South 8.1 mph - N/A   Clear
1:15 PM 71.6 °F 39.2 °F 31% 29.79 in 10.0 mi South 9.2 mph - N/A   Clear
1:35 PM 74.1 °F 39.2 °F 28% 29.78 in 10.0 mi South 9.2 mph - N/A   Clear
1:55 PM 73.8 °F 39.6 °F 29% 29.78 in 10.0 mi South 12.7 mph - N/A   Clear
2:15 PM 74.8 °F 38.1 °F 26% 29.77 in 10.0 mi South 12.7 mph - N/A   Clear
2:35 PM 75.9 °F 39.2 °F 27% 29.77 in 10.0 mi SSE 12.7 mph - N/A   Clear
2:55 PM 75.2 °F 37.9 °F 26% 29.77 in 10.0 mi SSE 13.8 mph - N/A   Clear
3:15 PM 75.6 °F 37.2 °F 25% 29.77 in 10.0 mi South 11.5 mph - N/A   Clear
3:35 PM 76.8 °F 38.1 °F 25% 29.77 in 10.0 mi South 15.0 mph - N/A   Clear
3:55 PM 75.6 °F 38.1 °F 26% 29.77 in 10.0 mi South 15.0 mph 18.4 mph N/A   Clear
4:15 PM 76.1 °F 36.9 °F 24% 29.77 in 10.0 mi South 13.8 mph - N/A   Clear
4:35 PM 76.6 °F 36.0 °F 23% 29.77 in 10.0 mi South 15.0 mph - N/A   Clear
4:55 PM 76.5 °F 35.6 °F 23% 29.76 in 10.0 mi SSW 12.7 mph - N/A   Clear
5:15 PM 77.2 °F 35.2 °F 22% 29.76 in 10.0 mi SSW 12.7 mph - N/A   Clear
5:35 PM 77.2 °F 36.0 °F 22% 29.75 in 10.0 mi South 9.2 mph - N/A   Clear
5:55 PM 77.9 °F 34.9 °F 21% 29.75 in 10.0 mi South 9.2 mph - N/A   Clear
6:15 PM 76.8 °F 34.7 °F 22% 29.75 in 10.0 mi South 5.8 mph - N/A   Clear
6:35 PM 74.1 °F 36.7 °F 26% 29.75 in 10.0 mi Calm Calm - N/A   Clear
6:55 PM 70.9 °F 38.3 °F 30% 29.75 in 10.0 mi South 3.5 mph - N/A   Clear
7:15 PM 67.8 °F 39.9 °F 36% 29.75 in 10.0 mi Calm Calm - N/A   Clear
7:35 PM 64.4 °F 40.8 °F 42% 29.76 in 10.0 mi Calm Calm - N/A   Clear
7:55 PM 62.2 °F 41.0 °F 46% 29.76 in 10.0 mi SE 5.8 mph - N/A   Clear
8:15 PM 64.0 °F 39.7 °F 41% 29.76 in 10.0 mi ESE 4.6 mph - N/A   Clear
8:35 PM 62.8 °F 40.3 °F 44% 29.77 in 10.0 mi SE 5.8 mph - N/A   Clear
8:55 PM 61.3 °F 40.5 °F 46% 29.77 in 10.0 mi SE 8.1 mph - N/A   Clear
9:15 PM 62.8 °F 40.5 °F 44% 29.78 in 10.0 mi SSE 8.1 mph - N/A   Clear
9:35 PM 64.6 °F 39.4 °F 40% 29.78 in 10.0 mi SSE 9.2 mph - N/A   Clear
9:55 PM 63.5 °F 39.9 °F 42% 29.78 in 10.0 mi SSE 8.1 mph - N/A   Clear
10:15 PM 63.1 °F 40.3 °F 43% 29.78 in 10.0 mi SSE 8.1 mph - N/A   Clear
10:35 PM 63.0 °F 40.5 °F 44% 29.78 in 10.0 mi SSE 10.4 mph - N/A   Clear
10:55 PM 62.8 °F 40.6 °F 44% 29.78 in 10.0 mi SSE 9.2 mph - N/A   Clear
11:15 PM 61.7 °F 41.0 °F 47% 29.78 in 10.0 mi SSE 9.2 mph - N/A   Clear
11:35 PM 61.7 °F 41.2 °F 47% 29.78 in 10.0 mi SSE 9.2 mph - N/A   Clear
11:55 PM 61.0 °F 41.4 °F 48% 29.79 in 10.0 mi SSE 9.2 mph - N/A   Clear